Location: Cul de Sac
(18.0387°N, 63.0654°W)
Time: 06:25:39
(UTC+00:00)

N. Korean satellite - Visible Passes

Search period start: 24 June 2021 00:00
Search period end: 04 July 2021 00:00
Orbit: 450 x 499 km, 97.2° (Epoch: 23 June)

Date Brightness Start Highest point End Pass type
(mag) Time Alt. Az. Time Alt. Az. Time Alt. Az.
24 Jun 7.6 09:03:59 10° NNE 09:07:31 48° E 09:11:04 10° S visible
25 Jun 9.4 08:37:39 10° NE 08:40:13 18° E 08:42:47 10° SE visible
27 Jun 6.8 09:15:10 10° NNE 09:18:50 77° E 09:22:29 10° S visible
28 Jun 8.8 08:48:24 10° NE 08:51:32 27° E 08:54:40 10° SSE visible
29 Jun 9.9 08:23:35 10° E 08:24:11 10° E 08:24:46 10° ESE visible
01 Jul 8.0 08:59:20 10° NNE 09:02:48 40° E 09:06:15 10° S visible
02 Jul 9.5 08:33:12 10° ENE 08:35:27 16° E 08:37:42 10° SE visible
